Weather History for MRLB - May, 2013

Change the Weather History Date:

Friday, May 3, 2013

  Actual Average Record
Temperature  
Mean Temperature 81 °F -  
Max Temperature 91 °F 90 °F 98 °F (2015)
Min Temperature 71 °F 76 °F 68 °F (2006)
Cooling Degree Days 16    
Growing Degree Days 31 (Base 50)    
Moisture  
Dew Point 72 °F    
Average Humidity 77    
Maximum Humidity 94    
Minimum Humidity 40    
Precipitation  
Precipitation 0.00 in - - ()
Sea Level Pressure  
Sea Level Pressure 29.85 in    
Wind  
Wind Speed 5 mph ()    
Max Wind Speed 21 mph    
Max Gust Speed -    
Visibility 6.6 miles    
Events Rain , Thunderstorm    
Averages and records for this station are not official NWS values.
T = Trace of Precipitation, MM = Missing Value Source: Averaged Metar Reports

Daily Weather History Graph

Daily Weather History Graph

Search for Another Location

Airport or City:

Trip Planner

Search our weather history database for the weather conditions in past years. The results will help you decide how hot, cold, wet, or windy it might be!

Date:

Astronomy

May. 03, 2013 Rise Set
Actual Time 5:23 AM CST 5:54 PM CST
Civil Twilight 5:01 AM CST 6:16 PM CST
Nautical Twilight 4:35 AM CST 6:42 PM CST
Astronomical Twilight 4:09 AM CST 7:08 PM CST
Moon 12:39 AM CST (5/3) 12:51 PM CST (5/3)
Length of Visible Light 13h 15m
Length of Day
12h 31m
Last Quarter, 36% of the Moon is Illuminated
May 3
Last Quarter
May 9
New
May 17
First Quarter
May 24
Full
May 31
Last Quarter

Hourly Weather History & Observations

Time (CST) Temp. Heat Index Dew Point Humidity Pressure Visibility Wind Dir Wind Speed Gust Speed Precip Events Conditions
6:00 AM 76 °F - 74 °F 90% 29.88 in 12 mi ENE 3.5 mph - -   Overcast
6:00 AM 75.2 °F - 73.4 °F 94% 29.87 in 6.2 mi ENE 3.5 mph - N/A   Mostly Cloudy
7:00 AM 78.8 °F - 75.2 °F 89% 29.88 in 6.2 mi NE 3.5 mph - N/A   Mostly Cloudy
8:00 AM 84.2 °F 90.9 °F 73.4 °F 70% 29.91 in 6.2 mi Calm Calm - N/A   Mostly Cloudy
9:00 AM 85 °F - 73 °F 59% 29.93 in 12 mi SSW 2.3 mph - -   Overcast
9:00 AM 84.2 °F 90.9 °F 73.4 °F 70% 29.91 in 6.2 mi SSW 2.3 mph - N/A   Mostly Cloudy
10:00 AM 86.0 °F 91.8 °F 71.6 °F 62% 29.91 in 6.2 mi South 4.6 mph - N/A   Scattered Clouds
11:00 AM 91.4 °F 96.8 °F 69.8 °F 49% 29.87 in 6.2 mi SSW 2.3 mph - N/A   Scattered Clouds
12:00 PM 91 °F - 70 °F 40% 29.84 in 12 mi South 3.5 mph - -   Overcast
12:00 PM 91.4 °F 96.8 °F 69.8 °F 49% 29.83 in 6.2 mi South 3.5 mph - N/A   Scattered Clouds
1:00 PM 91.4 °F 96.8 °F 69.8 °F 49% 29.80 in 6.2 mi West 12.7 mph - N/A   Mostly Cloudy
2:00 PM 89.6 °F 94.7 °F 69.8 °F 52% 29.77 in 6.2 mi WSW 20.7 mph - N/A   Mostly Cloudy
3:00 PM 87 °F - 71 °F 51% 29.81 in 9 mi SW 15.0 mph - -   Overcast
3:00 PM 86.0 °F 91.8 °F 71.6 °F 62% 29.79 in 6.2 mi SW 15.0 mph - N/A   Mostly Cloudy
3:32 PM 77.0 °F - 75.2 °F 94% 29.82 in 1.9 mi North 5.8 mph - N/A Rain Rain
3:40 PM 73.4 °F - 71.6 °F 94% 29.83 in 0.3 mi ENE 13.8 mph - N/A Rain , Thunderstorm Thunderstorms and Rain
4:00 PM 71.6 °F - 69.8 °F 94% 29.85 in 0.3 mi East 9.2 mph - N/A Rain , Thunderstorm Thunderstorms and Rain
4:12 PM 71.6 °F - 69.8 °F 94% 29.84 in 5.0 mi East 13.8 mph - N/A Rain Rain
4:37 PM 73.4 °F - 71.6 °F 94% 29.83 in 6.2 mi East 9.2 mph - N/A Rain Light Rain
5:00 PM 73.4 °F - 69.8 °F 88% 29.80 in 6.2 mi ESE 3.5 mph - N/A   Mostly Cloudy
6:00 PM 73 °F - 71 °F 90% 29.86 in 12 mi ENE 4.6 mph - -  
6:00 PM 73.4 °F - 71.6 °F 94% 29.84 in 6.2 mi ENE 4.6 mph - N/A   Scattered Clouds
7:00 PM 73.4 °F - 69.8 °F 88% 29.85 in 6.2 mi Calm Calm - N/A   Scattered Clouds
8:00 PM 73.4 °F - 69.8 °F 88% 29.86 in 6.2 mi NE 4.6 mph - N/A   Scattered Clouds
9:00 PM 73.4 °F - 71.6 °F 94% 29.88 in - ENE 4.6 mph - N/A   Clear
10:00 PM 73.4 °F - 71.6 °F 94% 29.89 in - West 3.5 mph - N/A   Clear
11:00 PM 73.4 °F - 71.6 °F 94% 29.87 in - SSE 4.6 mph - N/A   Clear